Time,TemperatureF,DewpointF,PressureIn,WindDirection,WindDirectionDegrees,WindSpeedMPH,WindSpeedGustMPH,Humidity,HourlyPrecipIn,Conditions,Clouds,dailyrainin,SoftwareType,DateUTC
2013-07-02 00:04:00,70.1,57.4,29.97,NE,46,0.0,0.0,64,0.00,,---,0.00,VWS V13.01,2013-07-02 05:04:00,
2013-07-02 00:08:00,69.9,57.2,29.97,NE,46,0.0,0.0,64,0.00,,---,0.00,VWS V13.01,2013-07-02 05:08:00,
2013-07-02 00:13:00,69.8,57.5,29.97,NE,45,0.0,0.0,65,0.00,,---,0.00,VWS V13.01,2013-07-02 05:13:00,
2013-07-02 00:19:00,69.7,57.4,29.97,NE,46,0.0,0.0,65,0.00,,---,0.00,VWS V13.01,2013-07-02 05:19:00,
2013-07-02 00:24:00,69.5,57.2,29.97,NE,45,0.0,0.0,65,0.00,,---,0.00,VWS V13.01,2013-07-02 05:24:00,
2013-07-02 00:29:00,69.4,57.1,29.97,NE,46,0.0,0.0,65,0.00,,---,0.00,VWS V13.01,2013-07-02 05:29:00,
2013-07-02 00:34:00,69.3,57.0,29.97,NE,46,0.0,0.0,65,0.00,,---,0.00,VWS V13.01,2013-07-02 05:34:00,
2013-07-02 00:39:00,69.2,57.0,29.97,NE,45,0.0,0.0,65,0.00,,---,0.00,VWS V13.01,2013-07-02 05:39:00,
2013-07-02 00:44:00,69.0,57.2,29.97,NE,46,0.0,0.0,66,0.00,,---,0.00,VWS V13.01,2013-07-02 05:44:00,
2013-07-02 00:49:00,68.9,57.5,29.97,NE,46,0.0,0.0,67,0.00,,---,0.00,VWS V13.01,2013-07-02 05:49:00,
2013-07-02 00:54:00,68.8,57.4,29.97,NE,45,0.0,0.0,67,0.00,,---,0.00,VWS V13.01,2013-07-02 05:54:00,
2013-07-02 00:59:00,68.6,57.2,29.97,NE,45,0.0,0.0,67,0.00,,---,0.00,VWS V13.01,2013-07-02 05:59:00,
2013-07-02 01:04:00,68.5,57.5,29.97,NE,45,0.0,0.0,68,0.00,,---,0.00,VWS V13.01,2013-07-02 06:04:00,
2013-07-02 01:09:00,68.5,57.5,29.97,NE,46,0.0,0.0,68,0.00,,---,0.00,VWS V13.01,2013-07-02 06:09:00,
2013-07-02 01:14:00,68.4,57.4,29.97,NE,46,0.0,0.0,68,0.00,,---,0.00,VWS V13.01,2013-07-02 06:14:00,
2013-07-02 01:19:00,68.4,57.8,29.97,NE,46,0.0,0.0,69,0.00,,---,0.00,VWS V13.01,2013-07-02 06:19:00,
2013-07-02 01:24:00,68.3,57.8,29.97,NE,46,0.0,0.0,69,0.00,,---,0.00,VWS V13.01,2013-07-02 06:24:00,
2013-07-02 01:29:00,68.3,57.8,29.97,NE,46,0.0,0.0,69,0.00,,---,0.00,VWS V13.01,2013-07-02 06:29:00,
2013-07-02 01:34:00,68.2,58.0,29.97,NE,45,0.0,0.0,70,0.00,,---,0.00,VWS V13.01,2013-07-02 06:34:00,
2013-07-02 01:39:00,68.2,58.0,29.97,NE,46,0.0,0.0,70,0.00,,---,0.00,VWS V13.01,2013-07-02 06:39:00,
2013-07-02 01:44:00,68.2,58.5,29.97,NE,46,0.0,0.0,71,0.00,,---,0.00,VWS V13.01,2013-07-02 06:44:00,
2013-07-02 01:49:00,68.1,58.3,29.97,NE,46,0.0,0.0,71,0.00,,---,0.00,VWS V13.01,2013-07-02 06:49:00,
2013-07-02 01:54:00,68.1,58.7,29.97,NE,46,0.0,0.0,72,0.00,,---,0.00,VWS V13.01,2013-07-02 06:54:00,
2013-07-02 01:59:00,68.1,58.7,29.97,NE,46,0.0,0.0,72,0.00,,---,0.00,VWS V13.01,2013-07-02 06:59:00,
2013-07-02 02:04:00,68.0,59.0,29.97,NE,46,0.0,0.0,73,0.00,,---,0.00,VWS V13.01,2013-07-02 07:04:00,
2013-07-02 02:09:00,68.0,59.0,29.97,NE,46,0.0,0.0,73,0.00,,---,0.00,VWS V13.01,2013-07-02 07:09:00,
2013-07-02 02:14:00,67.9,58.9,29.97,NE,46,0.0,2.0,73,0.00,,---,0.00,VWS V13.01,2013-07-02 07:14:00,
2013-07-02 02:19:00,67.9,59.3,29.97,NE,46,0.0,2.0,74,0.00,,---,0.00,VWS V13.01,2013-07-02 07:19:00,
2013-07-02 02:24:00,67.9,59.7,29.96,NE,46,0.0,2.0,75,0.00,,---,0.00,VWS V13.01,2013-07-02 07:24:00,
2013-07-02 02:29:00,67.9,59.7,29.96,NE,46,0.0,2.0,75,0.00,,---,0.00,VWS V13.01,2013-07-02 07:29:00,
2013-07-02 02:34:00,67.7,59.5,29.96,NE,46,0.0,2.0,75,0.00,,---,0.00,VWS V13.01,2013-07-02 07:34:00,
2013-07-02 02:39:00,67.7,59.5,29.96,NE,45,0.0,0.0,75,0.00,,---,0.00,VWS V13.01,2013-07-02 07:39:00,
2013-07-02 02:44:00,67.6,59.8,29.96,NE,46,0.0,1.0,76,0.00,,---,0.00,VWS V13.01,2013-07-02 07:44:00,
2013-07-02 02:49:00,67.6,59.8,29.96,NE,46,0.0,1.0,76,0.00,,---,0.00,VWS V13.01,2013-07-02 07:49:00,
2013-07-02 02:54:00,67.5,60.0,29.96,NE,46,0.0,2.0,77,0.00,,---,0.00,VWS V13.01,2013-07-02 07:54:00,
2013-07-02 02:59:00,67.5,60.0,29.96,NE,46,0.0,2.0,77,0.00,,---,0.00,VWS V13.01,2013-07-02 07:59:00,
2013-07-02 03:04:00,67.4,60.0,29.97,NE,45,0.0,2.0,77,0.00,,---,0.00,VWS V13.01,2013-07-02 08:04:00,
2013-07-02 03:09:00,67.3,59.8,29.97,NE,46,0.0,0.0,77,0.00,,---,0.00,VWS V13.01,2013-07-02 08:09:00,
2013-07-02 03:14:00,67.3,60.2,29.97,NE,45,0.0,0.0,78,0.00,,---,0.00,VWS V13.01,2013-07-02 08:14:00,
2013-07-02 03:19:00,67.2,60.5,29.97,NE,46,0.0,1.0,79,0.00,,---,0.00,VWS V13.01,2013-07-02 08:19:00,
2013-07-02 03:24:00,67.2,60.5,29.97,NE,42,0.0,3.0,79,0.00,,---,0.00,VWS V13.01,2013-07-02 08:24:00,
2013-07-02 03:29:00,67.1,60.4,29.97,NE,41,0.0,3.0,79,0.00,,---,0.00,VWS V13.01,2013-07-02 08:29:00,
2013-07-02 03:34:00,67.0,60.3,29.97,NE,41,0.0,3.0,79,0.00,,---,0.00,VWS V13.01,2013-07-02 08:34:00,
2013-07-02 03:39:00,66.9,60.2,29.97,NE,41,0.0,0.0,79,0.00,,---,0.00,VWS V13.01,2013-07-02 08:39:00,
2013-07-02 03:44:00,66.9,60.5,29.97,NNW,341,0.0,3.0,80,0.00,,---,0.00,VWS V13.01,2013-07-02 08:44:00,
2013-07-02 03:49:00,66.8,60.4,29.97,NNW,338,0.0,3.0,80,0.00,,---,0.00,VWS V13.01,2013-07-02 08:49:00,
2013-07-02 03:54:00,66.8,60.4,29.97,NNW,338,0.0,3.0,80,0.00,,---,0.00,VWS V13.01,2013-07-02 08:54:00,
2013-07-02 03:59:00,66.7,60.3,29.97,NNW,334,0.0,3.0,80,0.00,,---,0.00,VWS V13.01,2013-07-02 08:59:00,
2013-07-02 04:04:00,66.7,60.3,29.97,NNW,334,2.0,4.0,80,0.00,,---,0.00,VWS V13.01,2013-07-02 09:04:00,
2013-07-02 04:09:00,66.6,60.2,29.98,NW,324,0.0,3.0,80,0.00,,---,0.00,VWS V13.01,2013-07-02 09:09:00,
2013-07-02 04:14:00,66.5,60.2,29.98,NW,321,0.0,6.0,80,0.00,,---,0.00,VWS V13.01,2013-07-02 09:14:00,
2013-07-02 04:19:00,66.5,60.2,29.98,NW,321,0.0,6.0,80,0.00,,---,0.00,VWS V13.01,2013-07-02 09:19:00,
2013-07-02 04:24:00,66.4,60.0,29.98,NW,321,0.0,6.0,80,0.00,,---,0.00,VWS V13.01,2013-07-02 09:24:00,
2013-07-02 04:29:00,66.3,60.0,29.98,NW,311,0.0,6.0,80,0.00,,---,0.00,VWS V13.01,2013-07-02 09:29:00,
2013-07-02 04:34:00,66.3,60.0,29.98,NW,321,0.0,6.0,80,0.00,,---,0.00,VWS V13.01,2013-07-02 09:34:00,
2013-07-02 04:39:00,66.3,60.0,29.98,NW,321,0.0,1.0,80,0.00,,---,0.00,VWS V13.01,2013-07-02 09:39:00,
2013-07-02 04:44:00,66.2,59.9,29.98,NW,321,0.0,1.0,80,0.00,,---,0.00,VWS V13.01,2013-07-02 09:44:00,
2013-07-02 04:49:00,66.1,59.8,29.98,NW,321,0.0,1.0,80,0.00,,---,0.00,VWS V13.01,2013-07-02 09:49:00,
2013-07-02 04:54:00,66.0,59.7,29.98,NW,321,0.0,2.0,80,0.00,,---,0.00,VWS V13.01,2013-07-02 09:54:00,
2013-07-02 04:59:00,66.0,59.7,29.98,NW,321,1.0,4.0,80,0.00,,---,0.00,VWS V13.01,2013-07-02 09:59:00,
2013-07-02 05:04:00,65.9,59.6,29.98,NW,308,1.0,4.0,80,0.00,,---,0.00,VWS V13.01,2013-07-02 10:04:00,
2013-07-02 05:09:00,65.8,59.5,29.99,NW,307,1.0,4.0,80,0.00,,---,0.00,VWS V13.01,2013-07-02 10:09:00,
2013-07-02 05:14:00,65.7,59.7,29.99,NW,308,1.0,4.0,81,0.00,,---,0.00,VWS V13.01,2013-07-02 10:14:00,
2013-07-02 05:19:00,65.6,59.6,29.99,NW,307,2.0,4.0,81,0.00,,---,0.00,VWS V13.01,2013-07-02 10:19:00,
2013-07-02 05:24:00,65.6,59.6,29.99,NW,307,0.0,4.0,81,0.00,,---,0.00,VWS V13.01,2013-07-02 10:24:00,
2013-07-02 05:29:00,65.5,60.2,29.99,WNW,300,0.0,4.0,83,0.00,,---,0.00,VWS V13.01,2013-07-02 10:29:00,
2013-07-02 05:34:00,65.4,59.4,29.99,WNW,300,1.0,4.0,81,0.00,,---,0.00,VWS V13.01,2013-07-02 10:34:00,
2013-07-02 05:39:00,65.3,59.3,29.99,WNW,300,3.0,3.0,81,0.00,,---,0.00,VWS V13.01,2013-07-02 10:39:00,
2013-07-02 05:44:00,65.3,59.3,30.00,WNW,300,2.0,4.0,81,0.00,,---,0.00,VWS V13.01,2013-07-02 10:44:00,
2013-07-02 05:49:00,65.2,59.2,30.00,WNW,301,0.0,4.0,81,0.00,,---,0.00,VWS V13.01,2013-07-02 10:49:00,
2013-07-02 05:54:00,65.1,59.1,30.00,WNW,301,2.0,4.0,81,0.00,,---,0.00,VWS V13.01,2013-07-02 10:54:00,
2013-07-02 05:59:00,65.0,59.0,30.00,WNW,300,2.0,4.0,81,0.00,,---,0.00,VWS V13.01,2013-07-02 10:59:00,
2013-07-02 06:04:00,65.0,59.0,30.00,NW,304,1.0,5.0,81,0.00,,---,0.00,VWS V13.01,2013-07-02 11:04:00,
2013-07-02 06:09:00,64.9,58.9,30.00,NW,304,0.0,4.0,81,0.00,,---,0.00,VWS V13.01,2013-07-02 11:09:00,
2013-07-02 06:14:00,64.9,58.9,30.01,NW,305,2.0,4.0,81,0.00,,---,0.00,VWS V13.01,2013-07-02 11:14:00,
2013-07-02 06:19:00,64.8,58.8,30.01,NW,325,0.0,7.0,81,0.00,,---,0.00,VWS V13.01,2013-07-02 11:19:00,
2013-07-02 06:24:00,64.8,58.8,30.01,NW,319,2.0,7.0,81,0.00,,---,0.00,VWS V13.01,2013-07-02 11:24:00,
2013-07-02 06:29:00,64.8,58.8,30.01,NW,319,1.0,7.0,81,0.00,,---,0.00,VWS V13.01,2013-07-02 11:29:00,
2013-07-02 06:34:00,64.8,58.8,30.01,NW,319,0.0,7.0,81,0.00,,---,0.00,VWS V13.01,2013-07-02 11:34:00,
2013-07-02 06:39:00,64.8,58.8,30.01,NW,319,0.0,2.0,81,0.00,,---,0.00,VWS V13.01,2013-07-02 11:39:00,
2013-07-02 06:44:00,64.8,59.2,30.01,NW,319,0.0,4.0,82,0.00,,---,0.00,VWS V13.01,2013-07-02 11:44:00,
2013-07-02 06:49:00,64.8,59.2,30.01,NW,319,0.0,4.0,82,0.00,,---,0.00,VWS V13.01,2013-07-02 11:49:00,
2013-07-02 06:54:00,64.9,59.3,30.01,NW,319,0.0,4.0,82,0.00,,---,0.00,VWS V13.01,2013-07-02 11:54:00,
2013-07-02 06:59:00,65.0,59.7,30.01,NW,319,1.0,4.0,83,0.00,,---,0.00,VWS V13.01,2013-07-02 11:59:00,
2013-07-02 07:04:00,65.1,59.8,30.01,NW,319,0.0,4.0,83,0.00,,---,0.00,VWS V13.01,2013-07-02 12:04:00,
2013-07-02 07:10:00,65.2,59.9,30.02,NW,319,1.0,4.0,83,0.00,,---,0.00,VWS V13.01,2013-07-02 12:10:00,
2013-07-02 07:15:00,65.3,59.7,30.02,NW,309,2.0,4.0,82,0.00,,---,0.00,VWS V13.01,2013-07-02 12:15:00,
2013-07-02 07:20:00,65.4,59.8,30.02,NW,310,3.0,6.0,82,0.00,,---,0.00,VWS V13.01,2013-07-02 12:20:00,
2013-07-02 07:25:00,65.5,59.9,30.02,NW,326,3.0,6.0,82,0.00,,---,0.00,VWS V13.01,2013-07-02 12:25:00,
2013-07-02 07:30:00,65.7,60.1,30.02,NW,315,0.0,6.0,82,0.00,,---,0.00,VWS V13.01,2013-07-02 12:30:00,
2013-07-02 07:35:00,65.8,59.8,30.02,NW,312,1.0,6.0,81,0.00,,---,0.00,VWS V13.01,2013-07-02 12:35:00,
2013-07-02 07:40:00,66.0,60.0,30.02,NW,311,2.0,4.0,81,0.00,,---,0.00,VWS V13.01,2013-07-02 12:40:00,
2013-07-02 07:45:00,66.2,59.9,30.02,WNW,298,6.0,7.0,80,0.00,,---,0.00,VWS V13.01,2013-07-02 12:45:00,
2013-07-02 07:50:00,66.5,59.8,30.02,NW,309,0.0,7.0,79,0.00,,---,0.00,VWS V13.01,2013-07-02 12:50:00,
2013-07-02 07:55:00,66.8,60.1,30.02,NW,316,1.0,7.0,79,0.00,,---,0.00,VWS V13.01,2013-07-02 12:55:00,
2013-07-02 08:00:00,67.1,60.7,30.02,WNW,300,2.0,7.0,80,0.00,,---,0.00,VWS V13.01,2013-07-02 13:00:00,
2013-07-02 08:05:00,67.5,61.1,30.02,NW,310,4.0,7.0,80,0.00,,---,0.00,VWS V13.01,2013-07-02 13:05:00,
2013-07-02 08:10:00,67.7,61.0,30.02,NW,319,0.0,5.0,79,0.00,,---,0.00,VWS V13.01,2013-07-02 13:10:00,
2013-07-02 08:15:00,68.0,61.2,30.03,NW,315,0.0,5.0,79,0.00,,---,0.00,VWS V13.01,2013-07-02 13:15:00,
2013-07-02 08:20:00,68.2,61.1,30.03,WNW,300,0.0,10.0,78,0.00,,---,0.00,VWS V13.01,2013-07-02 13:20:00,
2013-07-02 08:25:00,68.4,60.5,30.03,NNW,332,0.0,10.0,76,0.00,,---,0.00,VWS V13.01,2013-07-02 13:25:00,
2013-07-02 08:30:00,68.6,60.4,30.03,NW,312,0.0,10.0,75,0.00,,---,0.00,VWS V13.01,2013-07-02 13:30:00,
2013-07-02 08:35:00,68.9,60.7,30.03,NW,311,0.0,10.0,75,0.00,,---,0.00,VWS V13.01,2013-07-02 13:35:00,
2013-07-02 08:40:00,69.1,61.2,30.03,NW,319,3.0,4.0,76,0.00,,---,0.00,VWS V13.01,2013-07-02 13:40:00,
2013-07-02 08:45:00,69.4,61.1,30.03,NW,307,0.0,6.0,75,0.00,,---,0.00,VWS V13.01,2013-07-02 13:45:00,
2013-07-02 08:50:00,69.6,61.3,30.03,West,276,0.0,6.0,75,0.00,,---,0.00,VWS V13.01,2013-07-02 13:50:00,
2013-07-02 08:55:00,69.8,61.5,30.03,West,279,0.0,6.0,75,0.00,,---,0.00,VWS V13.01,2013-07-02 13:55:00,
2013-07-02 09:00:00,70.2,62.3,30.03,WNW,289,0.0,6.0,76,0.00,,---,0.00,VWS V13.01,2013-07-02 14:00:00,
2013-07-02 09:05:00,70.5,62.6,30.03,WNW,288,1.0,6.0,76,0.00,,---,0.00,VWS V13.01,2013-07-02 14:05:00,
2013-07-02 09:10:00,70.8,62.5,30.03,NNW,333,0.0,5.0,75,0.00,,---,0.00,VWS V13.01,2013-07-02 14:10:00,
2013-07-02 09:15:00,71.1,62.4,30.03,NNW,343,0.0,5.0,74,0.00,,---,0.00,VWS V13.01,2013-07-02 14:15:00,
2013-07-02 09:20:00,71.3,61.8,30.03,NW,306,4.0,5.0,72,0.00,,---,0.00,VWS V13.01,2013-07-02 14:20:00,
2013-07-02 09:25:00,71.6,61.7,30.03,WNW,302,0.0,5.0,71,0.00,,---,0.00,VWS V13.01,2013-07-02 14:25:00,
2013-07-02 09:30:00,72.0,62.1,30.03,NW,315,2.0,7.0,71,0.00,,---,0.00,VWS V13.01,2013-07-02 14:30:00,
2013-07-02 09:35:00,72.3,62.0,30.03,NNW,327,0.0,7.0,70,0.00,,---,0.00,VWS V13.01,2013-07-02 14:35:00,
2013-07-02 09:40:00,72.6,62.3,30.03,NW,309,1.0,5.0,70,0.00,,---,0.00,VWS V13.01,2013-07-02 14:40:00,
2013-07-02 09:45:00,73.0,61.8,30.03,WNW,282,0.0,5.0,68,0.00,,---,0.00,VWS V13.01,2013-07-02 14:45:00,
2013-07-02 09:50:00,73.3,62.5,30.03,WNW,293,2.0,5.0,69,0.00,,---,0.00,VWS V13.01,2013-07-02 14:50:00,
2013-07-02 09:55:00,73.6,62.0,30.03,NNW,327,5.0,7.0,67,0.00,,---,0.00,VWS V13.01,2013-07-02 14:55:00,
2013-07-02 10:00:00,73.9,61.4,30.03,NW,322,2.0,7.0,65,0.00,,---,0.00,VWS V13.01,2013-07-02 15:00:00,
2013-07-02 10:05:00,74.2,61.7,30.03,NW,312,2.0,7.0,65,0.00,,---,0.00,VWS V13.01,2013-07-02 15:05:00,
2013-07-02 10:10:00,74.4,61.4,30.03,NW,325,1.0,4.0,64,0.00,,---,0.00,VWS V13.01,2013-07-02 15:10:00,
2013-07-02 10:15:00,74.7,62.2,30.03,NW,325,3.0,6.0,65,0.00,,---,0.00,VWS V13.01,2013-07-02 15:15:00,
2013-07-02 10:20:00,75.0,62.0,30.03,NW,311,0.0,6.0,64,0.00,,---,0.00,VWS V13.01,2013-07-02 15:20:00,
2013-07-02 10:25:00,75.3,61.4,30.03,NW,314,0.0,6.0,62,0.00,,---,0.00,VWS V13.01,2013-07-02 15:25:00,
2013-07-02 10:30:00,75.5,61.1,30.03,NW,323,0.0,6.0,61,0.00,,---,0.00,VWS V13.01,2013-07-02 15:30:00,
2013-07-02 10:36:00,75.9,61.0,30.03,NW,322,3.0,7.0,60,0.00,,---,0.00,VWS V13.01,2013-07-02 15:36:00,
2013-07-02 10:41:00,76.3,60.9,30.02,NW,304,1.0,8.0,59,0.00,,---,0.00,VWS V13.01,2013-07-02 15:41:00,
2013-07-02 10:46:00,76.7,60.8,30.02,NNW,336,1.0,8.0,58,0.00,,---,0.00,VWS V13.01,2013-07-02 15:46:00,
2013-07-02 10:51:00,76.9,60.5,30.02,NW,325,0.0,8.0,57,0.00,,---,0.00,VWS V13.01,2013-07-02 15:51:00,
2013-07-02 10:56:00,77.3,61.4,30.02,West,275,0.0,8.0,58,0.00,,---,0.00,VWS V13.01,2013-07-02 15:56:00,
2013-07-02 11:01:00,77.5,61.6,30.02,NW,326,3.0,10.0,58,0.00,,---,0.00,VWS V13.01,2013-07-02 16:01:00,
2013-07-02 11:06:00,77.7,61.3,30.02,SW,215,1.0,10.0,57,0.00,,---,0.00,VWS V13.01,2013-07-02 16:06:00,
2013-07-02 11:11:00,78.1,61.6,30.02,WNW,294,0.0,4.0,57,0.00,,---,0.00,VWS V13.01,2013-07-02 16:11:00,
2013-07-02 11:16:00,78.6,60.1,30.02,North,349,0.0,4.0,53,0.00,,---,0.00,VWS V13.01,2013-07-02 16:16:00,
2013-07-02 11:21:00,78.7,60.7,30.02,NNW,327,4.0,7.0,54,0.00,,---,0.00,VWS V13.01,2013-07-02 16:21:00,
2013-07-02 11:26:00,79.2,60.6,30.02,North,355,5.0,10.0,53,0.00,,---,0.00,VWS V13.01,2013-07-02 16:26:00,
2013-07-02 11:31:00,79.4,58.6,30.02,North,355,0.0,13.0,49,0.00,,---,0.00,VWS V13.01,2013-07-02 16:31:00,
2013-07-02 11:36:00,79.4,59.7,30.02,North,360,0.0,13.0,51,0.00,,---,0.00,VWS V13.01,2013-07-02 16:36:00,
2013-07-02 11:41:00,79.4,59.2,30.03,North,355,0.0,1.0,50,0.00,,---,0.00,VWS V13.01,2013-07-02 16:41:00,
2013-07-02 11:46:00,79.5,59.8,30.02,SW,236,0.0,9.0,51,0.00,,---,0.00,VWS V13.01,2013-07-02 16:46:00,
2013-07-02 11:51:00,79.4,60.8,30.02,NNW,332,0.0,9.0,53,0.00,,---,0.00,VWS V13.01,2013-07-02 16:51:00,
2013-07-02 11:56:00,79.8,61.7,30.02,West,279,5.0,11.0,54,0.00,,---,0.00,VWS V13.01,2013-07-02 16:56:00,
2013-07-02 12:01:00,80.2,61.0,30.02,WNW,282,0.0,11.0,52,0.00,,---,0.00,VWS V13.01,2013-07-02 17:01:00,
2013-07-02 12:06:00,80.3,60.5,30.02,West,279,0.0,11.0,51,0.00,,---,0.00,VWS V13.01,2013-07-02 17:06:00,
2013-07-02 12:11:00,80.5,60.7,30.02,NNW,346,0.0,7.0,51,0.00,,---,0.00,VWS V13.01,2013-07-02 17:11:00,
2013-07-02 12:16:00,80.8,60.4,30.02,NNW,329,2.0,9.0,50,0.00,,---,0.00,VWS V13.01,2013-07-02 17:16:00,
2013-07-02 12:21:00,81.1,61.3,30.02,NW,305,0.0,9.0,51,0.00,,---,0.00,VWS V13.01,2013-07-02 17:21:00,
2013-07-02 12:26:00,81.6,61.7,30.02,NW,321,0.0,9.0,51,0.00,,---,0.00,VWS V13.01,2013-07-02 17:26:00,
2013-07-02 12:31:00,81.6,60.6,30.02,NW,321,0.0,9.0,49,0.00,,---,0.00,VWS V13.01,2013-07-02 17:31:00,
2013-07-02 12:36:00,81.7,61.3,30.02,NW,314,0.0,9.0,50,0.00,,---,0.00,VWS V13.01,2013-07-02 17:36:00,
2013-07-02 12:41:00,82.0,61.0,30.01,WSW,245,1.0,9.0,49,0.00,,---,0.00,VWS V13.01,2013-07-02 17:41:00,
2013-07-02 12:46:00,82.3,61.2,30.01,NW,309,0.0,11.0,49,0.00,,---,0.00,VWS V13.01,2013-07-02 17:46:00,
2013-07-02 12:51:00,82.3,61.8,30.01,NW,325,0.0,11.0,50,0.00,,---,0.00,VWS V13.01,2013-07-02 17:51:00,
2013-07-02 12:56:00,82.6,60.9,30.01,North,355,0.0,11.0,48,0.00,,---,0.00,VWS V13.01,2013-07-02 17:56:00,
2013-07-02 13:01:00,82.7,59.8,30.01,West,279,0.0,11.0,46,0.00,,---,0.00,VWS V13.01,2013-07-02 18:01:00,
2013-07-02 13:06:00,82.8,58.7,30.01,NW,315,0.0,11.0,44,0.00,,---,0.00,VWS V13.01,2013-07-02 18:06:00,
2013-07-02 13:11:00,82.9,58.1,30.01,NNW,330,0.0,4.0,43,0.00,,---,0.00,VWS V13.01,2013-07-02 18:11:00,
2013-07-02 13:16:00,83.0,56.9,30.01,NNW,329,0.0,6.0,41,0.00,,---,0.00,VWS V13.01,2013-07-02 18:16:00,
2013-07-02 13:21:00,83.4,57.9,30.01,NNE,15,0.0,6.0,42,0.00,,---,0.00,VWS V13.01,2013-07-02 18:21:00,
2013-07-02 13:26:00,83.9,59.7,30.00,NE,45,4.0,9.0,44,0.00,,---,0.00,VWS V13.01,2013-07-02 18:26:00,
2013-07-02 13:32:00,84.0,58.5,30.00,NW,307,3.0,9.0,42,0.00,,---,0.00,VWS V13.01,2013-07-02 18:32:00,
2013-07-02 13:37:00,83.4,57.3,30.00,NE,40,3.0,4.0,41,0.00,,---,0.00,VWS V13.01,2013-07-02 18:37:00,
2013-07-02 13:42:00,83.5,58.0,30.00,NE,40,0.0,4.0,42,0.00,,---,0.00,VWS V13.01,2013-07-02 18:42:00,
2013-07-02 13:47:00,83.6,58.1,30.00,NW,310,4.0,6.0,42,0.00,,---,0.00,VWS V13.01,2013-07-02 18:47:00,
2013-07-02 13:52:00,83.8,58.9,30.00,NNW,336,0.0,8.0,43,0.00,,---,0.00,VWS V13.01,2013-07-02 18:52:00,
2013-07-02 13:57:00,83.5,57.3,30.00,SW,228,1.0,8.0,41,0.00,,---,0.00,VWS V13.01,2013-07-02 18:57:00,
2013-07-02 14:02:00,83.5,56.7,30.00,SW,233,0.0,8.0,40,0.00,,---,0.00,VWS V13.01,2013-07-02 19:02:00,
2013-07-02 14:07:00,83.3,57.8,30.00,NE,36,0.0,5.0,42,0.00,,---,0.00,VWS V13.01,2013-07-02 19:07:00,
2013-07-02 14:12:00,83.4,57.3,29.99,NE,36,0.0,5.0,41,0.00,,---,0.00,VWS V13.01,2013-07-02 19:12:00,
2013-07-02 14:17:00,83.5,57.3,29.99,NW,313,1.0,5.0,41,0.00,,---,0.00,VWS V13.01,2013-07-02 19:17:00,
2013-07-02 14:23:00,83.8,57.6,29.99,NW,322,0.0,5.0,41,0.00,,---,0.00,VWS V13.01,2013-07-02 19:23:00,
2013-07-02 14:28:00,84.3,58.7,29.99,NE,41,0.0,5.0,42,0.00,,---,0.00,VWS V13.01,2013-07-02 19:28:00,
2013-07-02 14:33:00,84.8,58.5,29.99,WNW,294,0.0,6.0,41,0.00,,---,0.00,VWS V13.01,2013-07-02 19:33:00,
2013-07-02 14:38:00,84.4,56.8,29.99,WNW,294,0.0,0.0,39,0.00,,---,0.00,VWS V13.01,2013-07-02 19:38:00,
2013-07-02 14:43:00,84.3,58.7,29.99,West,272,0.0,2.0,42,0.00,,---,0.00,VWS V13.01,2013-07-02 19:43:00,
2013-07-02 14:48:00,84.3,57.4,29.99,West,264,0.0,11.0,40,0.00,,---,0.00,VWS V13.01,2013-07-02 19:48:00,
2013-07-02 14:53:00,84.1,56.5,29.99,WNW,292,0.0,11.0,39,0.00,,---,0.00,VWS V13.01,2013-07-02 19:53:00,
2013-07-02 14:58:00,84.4,59.5,29.99,NW,323,0.0,11.0,43,0.00,,---,0.00,VWS V13.01,2013-07-02 19:58:00,
2013-07-02 15:03:00,84.8,57.8,29.99,WNW,291,1.0,11.0,40,0.00,,---,0.00,VWS V13.01,2013-07-02 20:03:00,
2013-07-02 15:08:00,84.7,57.7,29.98,WNW,301,0.0,0.0,40,0.00,,---,0.00,VWS V13.01,2013-07-02 20:08:00,
2013-07-02 15:13:00,84.4,57.5,29.98,WNW,302,1.0,2.0,40,0.00,,---,0.00,VWS V13.01,2013-07-02 20:13:00,
2013-07-02 15:18:00,85.0,58.0,29.98,West,274,1.0,5.0,40,0.00,,---,0.00,VWS V13.01,2013-07-02 20:18:00,
2013-07-02 15:23:00,85.1,59.5,29.98,NW,304,0.0,6.0,42,0.00,,---,0.00,VWS V13.01,2013-07-02 20:23:00,
2013-07-02 15:28:00,85.2,58.2,29.98,North,350,0.0,6.0,40,0.00,,---,0.00,VWS V13.01,2013-07-02 20:28:00,
2013-07-02 15:33:00,84.8,56.4,29.98,NE,46,0.0,6.0,38,0.00,,---,0.00,VWS V13.01,2013-07-02 20:33:00,
2013-07-02 15:38:00,84.4,56.8,29.98,NNW,347,0.0,3.0,39,0.00,,---,0.00,VWS V13.01,2013-07-02 20:38:00,
2013-07-02 15:43:00,84.4,56.0,29.98,NNW,333,0.0,3.0,38,0.00,,---,0.00,VWS V13.01,2013-07-02 20:43:00,
2013-07-02 15:48:00,84.2,55.9,29.98,NNW,335,0.0,3.0,38,0.00,,---,0.00,VWS V13.01,2013-07-02 20:48:00,
2013-07-02 15:53:00,84.7,57.0,29.98,NE,46,0.0,5.0,39,0.00,,---,0.00,VWS V13.01,2013-07-02 20:53:00,
2013-07-02 15:58:00,84.8,56.4,29.98,NE,40,0.0,5.0,38,0.00,,---,0.00,VWS V13.01,2013-07-02 20:58:00,
2013-07-02 16:03:00,84.3,57.4,29.98,NW,306,0.0,9.0,40,0.00,,---,0.00,VWS V13.01,2013-07-02 21:03:00,
2013-07-02 16:08:00,84.2,57.3,29.98,NW,306,0.0,1.0,40,0.00,,---,0.00,VWS V13.01,2013-07-02 21:08:00,
2013-07-02 16:14:00,84.3,56.0,29.98,NE,34,0.0,4.0,38,0.00,,---,0.00,VWS V13.01,2013-07-02 21:14:00,
2013-07-02 16:19:00,83.9,56.3,29.98,NW,304,0.0,4.0,39,0.00,,---,0.00,VWS V13.01,2013-07-02 21:19:00,
2013-07-02 16:23:00,83.9,55.6,29.98,NNE,13,0.0,4.0,38,0.00,,---,0.00,VWS V13.01,2013-07-02 21:23:00,
2013-07-02 16:29:00,84.0,55.0,29.98,NNE,12,0.0,4.0,37,0.00,,---,0.00,VWS V13.01,2013-07-02 21:29:00,
2013-07-02 16:34:00,84.5,55.4,29.98,NE,36,2.0,12.0,37,0.00,,---,0.00,VWS V13.01,2013-07-02 21:34:00,
2013-07-02 16:39:00,84.7,56.3,29.98,NE,37,0.0,5.0,38,0.00,,---,0.00,VWS V13.01,2013-07-02 21:39:00,
2013-07-02 16:44:00,84.8,55.7,29.98,NE,37,3.0,7.0,37,0.00,,---,0.00,VWS V13.01,2013-07-02 21:44:00,
2013-07-02 16:49:00,85.0,56.6,29.98,NE,37,0.0,7.0,38,0.00,,---,0.00,VWS V13.01,2013-07-02 21:49:00,
2013-07-02 16:54:00,85.0,58.0,29.98,NE,37,3.0,7.0,40,0.00,,---,0.00,VWS V13.01,2013-07-02 21:54:00,
2013-07-02 16:59:00,85.0,55.1,29.98,NE,37,0.0,7.0,36,0.00,,---,0.00,VWS V13.01,2013-07-02 21:59:00,
2013-07-02 17:04:00,84.5,56.8,29.98,NE,38,3.0,7.0,39,0.00,,---,0.00,VWS V13.01,2013-07-02 22:04:00,
2013-07-02 17:09:00,84.2,56.6,29.98,NE,38,1.0,6.0,39,0.00,,---,0.00,VWS V13.01,2013-07-02 22:09:00,
2013-07-02 17:14:00,83.9,57.7,29.98,NE,38,0.0,6.0,41,0.00,,---,0.00,VWS V13.01,2013-07-02 22:14:00,
2013-07-02 17:19:00,83.4,56.6,29.98,NE,38,0.0,6.0,40,0.00,,---,0.00,VWS V13.01,2013-07-02 22:19:00,
2013-07-02 17:24:00,83.2,56.4,29.98,NE,38,0.0,6.0,40,0.00,,---,0.00,VWS V13.01,2013-07-02 22:24:00,
2013-07-02 17:29:00,83.0,55.5,29.98,NE,38,0.0,6.0,39,0.00,,---,0.00,VWS V13.01,2013-07-02 22:29:00,
2013-07-02 17:34:00,82.9,56.1,29.98,NE,38,0.0,6.0,40,0.00,,---,0.00,VWS V13.01,2013-07-02 22:34:00,
2013-07-02 17:39:00,82.7,56.0,29.97,NE,38,0.0,0.0,40,0.00,,---,0.00,VWS V13.01,2013-07-02 22:39:00,
2013-07-02 17:44:00,82.7,56.6,29.97,NE,38,0.0,0.0,41,0.00,,---,0.00,VWS V13.01,2013-07-02 22:44:00,
2013-07-02 17:49:00,82.7,57.3,29.97,NE,38,0.0,2.0,42,0.00,,---,0.00,VWS V13.01,2013-07-02 22:49:00,
2013-07-02 17:54:00,82.6,56.5,29.97,NE,40,1.0,7.0,41,0.00,,---,0.00,VWS V13.01,2013-07-02 22:54:00,
2013-07-02 17:59:00,82.5,56.5,29.97,NE,41,0.0,7.0,41,0.00,,---,0.00,VWS V13.01,2013-07-02 22:59:00,
2013-07-02 18:04:00,82.5,55.8,29.97,NE,41,0.0,7.0,40,0.00,,---,0.00,VWS V13.01,2013-07-02 23:04:00,
2013-07-02 18:09:00,82.4,56.4,29.98,NE,38,6.0,7.0,41,0.00,,---,0.00,VWS V13.01,2013-07-02 23:09:00,
2013-07-02 18:14:00,82.4,55.7,29.98,NE,37,1.0,8.0,40,0.00,,---,0.00,VWS V13.01,2013-07-02 23:14:00,
2013-07-02 18:19:00,82.4,55.0,29.98,NE,38,0.0,8.0,39,0.00,,---,0.00,VWS V13.01,2013-07-02 23:19:00,
2013-07-02 18:24:00,82.3,54.9,29.97,NE,38,0.0,8.0,39,0.00,,---,0.00,VWS V13.01,2013-07-02 23:24:00,
2013-07-02 18:29:00,82.3,55.6,29.97,NE,37,0.0,8.0,40,0.00,,---,0.00,VWS V13.01,2013-07-02 23:29:00,
2013-07-02 18:34:00,82.2,55.5,29.97,NE,37,0.0,8.0,40,0.00,,---,0.00,VWS V13.01,2013-07-02 23:34:00,
2013-07-02 18:39:00,82.2,56.2,29.98,NE,38,0.0,4.0,41,0.00,,---,0.00,VWS V13.01,2013-07-02 23:39:00,
2013-07-02 18:44:00,82.1,55.4,29.98,NE,38,2.0,6.0,40,0.00,,---,0.00,VWS V13.01,2013-07-02 23:44:00,
2013-07-02 18:49:00,82.1,55.4,29.98,NE,37,0.0,6.0,40,0.00,,---,0.00,VWS V13.01,2013-07-02 23:49:00,
2013-07-02 18:54:00,82.0,55.3,29.98,NE,38,0.0,6.0,40,0.00,,---,0.00,VWS V13.01,2013-07-02 23:54:00,
2013-07-02 18:59:00,81.9,55.9,29.98,NE,38,0.0,6.0,41,0.00,,---,0.00,VWS V13.01,2013-07-02 23:59:00,
2013-07-02 19:03:00,81.8,56.5,29.98,NE,37,0.0,6.0,42,0.00,,---,0.00,VWS V13.01,2013-07-03 00:03:00,
2013-07-02 19:06:00,81.8,55.8,29.98,NE,38,0.0,0.0,41,0.00,,---,0.00,VWS V13.01,2013-07-03 00:06:00,
2013-07-02 19:11:00,81.7,56.4,29.98,NE,38,3.0,5.0,42,0.00,,---,0.00,VWS V13.01,2013-07-03 00:11:00,
2013-07-02 19:16:00,81.6,56.3,29.98,NE,38,3.0,5.0,42,0.00,,---,0.00,VWS V13.01,2013-07-03 00:16:00,
2013-07-02 19:22:00,81.5,54.9,29.98,NE,38,3.0,6.0,40,0.00,,---,0.00,VWS V13.01,2013-07-03 00:22:00,
2013-07-02 19:23:00,81.4,54.8,29.98,NE,38,3.0,6.0,40,0.00,,---,0.00,VWS V13.01,2013-07-03 00:23:00,
2013-07-02 19:24:00,81.4,55.5,29.99,NE,37,0.0,6.0,41,0.00,,---,0.00,VWS V13.01,2013-07-03 00:24:00,
2013-07-02 19:28:00,81.3,56.0,29.99,NE,37,0.0,6.0,42,0.00,,---,0.00,VWS V13.01,2013-07-03 00:28:00,
2013-07-02 19:33:00,81.2,56.0,29.99,NE,38,0.0,6.0,42,0.00,,---,0.00,VWS V13.01,2013-07-03 00:33:00,
2013-07-02 19:38:00,81.1,55.9,29.98,NE,38,0.0,0.0,42,0.00,,---,0.00,VWS V13.01,2013-07-03 00:38:00,
2013-07-02 19:43:00,80.9,55.0,29.99,NE,37,4.0,4.0,41,0.00,,---,0.00,VWS V13.01,2013-07-03 00:43:00,
2013-07-02 19:48:00,80.7,54.8,29.99,NE,38,0.0,4.0,41,0.00,,---,0.00,VWS V13.01,2013-07-03 00:48:00,
2013-07-02 19:53:00,80.5,55.3,29.99,NE,38,0.0,4.0,42,0.00,,---,0.00,VWS V13.01,2013-07-03 00:53:00,
2013-07-02 19:58:00,80.3,55.8,29.99,NE,37,0.0,4.0,43,0.00,,---,0.00,VWS V13.01,2013-07-03 00:58:00,
2013-07-02 20:00:00,80.2,55.7,29.99,NE,37,0.0,4.0,43,0.00,,---,0.00,VWS V13.01,2013-07-03 01:00:00,
2013-07-02 20:04:00,79.9,55.4,29.99,NE,38,0.0,4.0,43,0.00,,---,0.00,VWS V13.01,2013-07-03 01:04:00,
2013-07-02 20:09:00,79.6,55.2,29.99,NE,38,0.0,0.0,43,0.00,,---,0.00,VWS V13.01,2013-07-03 01:09:00,
2013-07-02 20:10:00,79.5,55.1,29.99,NE,38,0.0,0.0,43,0.00,,---,0.00,VWS V13.01,2013-07-03 01:10:00,
2013-07-02 20:15:00,79.0,54.6,29.99,NE,37,0.0,0.0,43,0.00,,---,0.00,VWS V13.01,2013-07-03 01:15:00,
2013-07-02 20:20:00,78.7,54.3,29.99,NE,38,0.0,0.0,43,0.00,,---,0.00,VWS V13.01,2013-07-03 01:20:00,
2013-07-02 20:25:00,78.1,54.4,29.99,NE,37,0.0,0.0,44,0.00,,---,0.00,VWS V13.01,2013-07-03 01:25:00,
2013-07-02 20:26:00,78.0,54.3,29.99,NE,37,0.0,0.0,44,0.00,,---,0.00,VWS V13.01,2013-07-03 01:26:00,
2013-07-02 20:31:00,77.6,54.6,29.99,NE,38,0.0,0.0,45,0.00,,---,0.00,VWS V13.01,2013-07-03 01:31:00,
2013-07-02 20:36:00,77.3,54.3,29.99,NE,38,0.0,0.0,45,0.00,,---,0.00,VWS V13.01,2013-07-03 01:36:00,
2013-07-02 20:41:00,77.0,54.1,29.99,NE,38,0.0,0.0,45,0.00,,---,0.00,VWS V13.01,2013-07-03 01:41:00,
2013-07-02 20:47:00,76.7,53.8,30.00,NE,37,0.0,0.0,45,0.00,,---,0.00,VWS V13.01,2013-07-03 01:47:00,
2013-07-02 20:49:00,76.6,53.7,30.00,NE,37,0.0,0.0,45,0.00,,---,0.00,VWS V13.01,2013-07-03 01:49:00,
2013-07-02 20:53:00,76.4,54.1,30.00,NE,38,0.0,0.0,46,0.00,,---,0.00,VWS V13.01,2013-07-03 01:53:00,
2013-07-02 20:58:00,76.1,53.8,30.00,NE,38,0.0,0.0,46,0.00,,---,0.00,VWS V13.01,2013-07-03 01:58:00,
2013-07-02 21:03:00,75.8,53.6,30.00,NE,38,2.0,3.0,46,0.00,,---,0.00,VWS V13.01,2013-07-03 02:03:00,
2013-07-02 21:08:00,75.5,53.3,30.00,NE,38,4.0,4.0,46,0.00,,---,0.00,VWS V13.01,2013-07-03 02:08:00,
2013-07-02 21:13:00,75.2,53.6,30.01,NE,38,2.0,5.0,47,0.00,,---,0.00,VWS V13.01,2013-07-03 02:13:00,
2013-07-02 21:18:00,74.9,53.9,30.01,NE,38,5.0,8.0,48,0.00,,---,0.00,VWS V13.01,2013-07-03 02:18:00,
2013-07-02 21:24:00,74.8,54.4,30.01,NE,38,3.0,8.0,49,0.00,,---,0.00,VWS V13.01,2013-07-03 02:24:00,
2013-07-02 21:29:00,74.6,54.2,30.01,NE,38,4.0,8.0,49,0.00,,---,0.00,VWS V13.01,2013-07-03 02:29:00,
2013-07-02 21:33:00,74.5,54.7,30.01,NE,39,0.0,8.0,50,0.00,,---,0.00,VWS V13.01,2013-07-03 02:33:00,
2013-07-02 21:38:00,74.4,54.6,30.02,NE,40,3.0,4.0,50,0.00,,---,0.00,VWS V13.01,2013-07-03 02:38:00,
2013-07-02 21:44:00,74.2,54.9,30.02,NE,40,2.0,7.0,51,0.00,,---,0.00,VWS V13.01,2013-07-03 02:44:00,
2013-07-02 21:47:00,74.1,54.8,30.02,NE,41,6.0,7.0,51,0.00,,---,0.00,VWS V13.01,2013-07-03 02:47:00,
2013-07-02 21:52:00,74.0,54.7,30.02,ENE,57,6.0,9.0,51,0.00,,---,0.00,VWS V13.01,2013-07-03 02:52:00,
2013-07-02 21:57:00,73.9,54.7,30.03,NE,46,4.0,9.0,51,0.00,,---,0.00,VWS V13.01,2013-07-03 02:57:00,
2013-07-02 22:02:00,73.8,55.1,30.03,NE,53,3.0,10.0,52,0.00,,---,0.00,VWS V13.01,2013-07-03 03:02:00,
2013-07-02 22:07:00,73.7,55.5,30.03,NE,53,1.0,4.0,53,0.00,,---,0.00,VWS V13.01,2013-07-03 03:07:00,
2013-07-02 22:12:00,73.5,55.3,30.03,NE,52,3.0,7.0,53,0.00,,---,0.00,VWS V13.01,2013-07-03 03:12:00,
2013-07-02 22:18:00,73.3,55.7,30.03,NE,55,3.0,7.0,54,0.00,,---,0.00,VWS V13.01,2013-07-03 03:18:00,
2013-07-02 22:20:00,73.3,55.7,30.03,NE,55,5.0,7.0,54,0.00,,---,0.00,VWS V13.01,2013-07-03 03:20:00,
2013-07-02 22:25:00,73.1,56.0,30.03,NE,55,1.0,7.0,55,0.00,,---,0.00,VWS V13.01,2013-07-03 03:25:00,
2013-07-02 22:30:00,73.0,55.9,30.03,NE,55,3.0,7.0,55,0.00,,---,0.00,VWS V13.01,2013-07-03 03:30:00,
2013-07-02 22:35:00,72.9,55.8,30.03,NE,55,1.0,7.0,55,0.00,,---,0.00,VWS V13.01,2013-07-03 03:35:00,
2013-07-02 22:39:00,72.8,56.2,30.03,NE,55,0.0,2.0,56,0.00,,---,0.00,VWS V13.01,2013-07-03 03:39:00,
2013-07-02 22:44:00,72.7,56.1,30.04,ENE,76,2.0,7.0,56,0.00,,---,0.00,VWS V13.01,2013-07-03 03:44:00,
2013-07-02 22:49:00,72.6,56.5,30.04,East,79,0.0,7.0,57,0.00,,---,0.00,VWS V13.01,2013-07-03 03:49:00,
2013-07-02 22:54:00,72.4,56.8,30.04,East,79,1.0,7.0,58,0.00,,---,0.00,VWS V13.01,2013-07-03 03:54:00,
2013-07-02 22:59:00,72.3,56.7,30.04,ENE,76,0.0,7.0,58,0.00,,---,0.00,VWS V13.01,2013-07-03 03:59:00,
2013-07-02 23:01:00,72.2,56.6,30.04,ENE,77,2.0,7.0,58,0.00,,---,0.00,VWS V13.01,2013-07-03 04:01:00,
2013-07-02 23:02:00,72.2,56.6,30.04,ENE,76,2.0,7.0,58,0.00,,---,0.00,VWS V13.01,2013-07-03 04:02:00,
2013-07-02 23:03:00,72.2,56.6,30.04,ENE,62,5.0,7.0,58,0.00,,---,0.00,VWS V13.01,2013-07-03 04:03:00,
2013-07-02 23:04:00,72.2,56.6,30.04,ENE,63,2.0,7.0,58,0.00,,---,0.00,VWS V13.01,2013-07-03 04:04:00,
2013-07-02 23:09:00,72.1,56.5,30.04,ESE,103,1.0,5.0,58,0.00,,---,0.00,VWS V13.01,2013-07-03 04:09:00,
2013-07-02 23:14:00,72.0,56.4,30.04,East,84,2.0,5.0,58,0.00,,---,0.00,VWS V13.01,2013-07-03 04:14:00,
2013-07-02 23:19:00,71.9,56.8,30.04,East,85,0.0,5.0,59,0.00,,---,0.00,VWS V13.01,2013-07-03 04:19:00,
2013-07-02 23:24:00,71.8,56.7,30.04,East,84,1.0,5.0,59,0.00,,---,0.00,VWS V13.01,2013-07-03 04:24:00,
2013-07-02 23:29:00,71.7,56.6,30.04,East,84,0.0,5.0,59,0.00,,---,0.00,VWS V13.01,2013-07-03 04:29:00,
2013-07-02 23:32:00,71.6,56.5,30.04,East,84,0.0,5.0,59,0.00,,---,0.00,VWS V13.01,2013-07-03 04:32:00,
2013-07-02 23:37:00,71.5,56.4,30.04,East,84,0.0,0.0,59,0.00,,---,0.00,VWS V13.01,2013-07-03 04:37:00,
2013-07-02 23:42:00,71.4,56.8,30.05,East,84,0.0,0.0,60,0.00,,---,0.00,VWS V13.01,2013-07-03 04:42:00,
2013-07-02 23:45:00,71.3,56.7,30.05,East,84,0.0,0.0,60,0.00,,---,0.00,VWS V13.01,2013-07-03 04:45:00,
2013-07-02 23:46:00,71.3,56.7,30.05,East,84,0.0,0.0,60,0.00,,---,0.00,VWS V13.01,2013-07-03 04:46:00,
2013-07-02 23:51:00,71.1,56.5,30.05,East,84,0.0,0.0,60,0.00,,---,0.00,VWS V13.01,2013-07-03 04:51:00,
2013-07-02 23:53:00,71.1,56.5,30.05,East,84,0.0,0.0,60,0.00,,---,0.00,VWS V13.01,2013-07-03 04:53:00,
2013-07-02 23:58:00,70.9,56.8,30.05,East,84,0.0,1.0,61,0.00,,---,0.00,VWS V13.01,2013-07-03 04:58:00,